This demonstration page uses our WeatherBlox Daily Observations layout. Learn more.

Left ArrowRight Arrow

Hourly Observations for January 23, 2022

Temp ( °F °C ) Dew Point ( °F °C ) Humidity (%) Winds ( mph kmh ) Pressure ( in mb ) Visibility ( mi km ) Precip ( " mm )
12:54 am 00:54 Clear 44 6.7 23 -5 43 43 W 13 20 30.01 1016 10 16 0.00 0.00
1:54 am 01:54 Mostly Clear 44 6.7 26 -3.3 49 49 NW 13 20 30.02 1017 10 16 0.00 0.00
2:33 am 02:33 Cloudy 44 6.7 28 -2.2 53 53 NNW 9 15 30.07 1018 10 16 0.00 0.00
2:54 am 02:54 Cloudy 43 6.1 32 0 65 65 N 14 22 30.07 1018 10 16 0.00 0.00
3:27 am 03:27 Cloudy 42 5.6 31 -0.6 65 65 N 15 24 30.09 1019 10 16 0.00 0.00
3:54 am 03:54 Cloudy 40 4.4 31 -0.6 70 70 NNW 10 17 30.08 1019 10 16 0.00 0.00
4:22 am 04:22 Mostly Cloudy 37 2.8 28 -2.2 70 70 N 16 26 30.13 1020 10 16 0.00 0.00
4:54 am 04:54 Cloudy 35 1.7 24 -4.4 64 64 N 21 33 30.12 1020 10 16 0.00 0.00
5:32 am 05:32 Partly Cloudy 29 -1.7 21 -6.1 72 72 N 20 31 30.19 1022 10 16 0.00 0.00
5:54 am 05:54 Clear 27 -2.8 19 -7.2 72 72 N 17 28 30.16 1021 10 16 0.00 0.00
6:54 am 06:54 Mostly Cloudy 25 -3.9 18 -7.8 75 75 N 15 24 30.19 1022 10 16 0.00 0.00
7:09 am 07:09 Cloudy 23 -5 16 -8.9 74 74 NNE 16 26 30.25 1024 10 16 0.00 0.00
7:32 am 07:32 Cloudy 21 -6.1 14 -10 74 74 NNE 18 30 30.26 1025 10 16 0.00 0.00
7:54 am 07:54 Cloudy 20 -6.7 13 -10.6 74 74 NNE 14 22 30.21 1023 10 16 0.00 0.00
8:54 am 08:54 Cloudy 19 -7.2 12 -11.1 74 74 N 9 15 30.22 1023 10 16 0.00 0.00
9:54 am 09:54 Cloudy 20 -6.7 12 -11.1 71 71 ENE 5 7 30.22 1023 10 16 0.00 0.00
10:36 am 10:36 Mostly Sunny 20 -6.7 12 -11.1 71 71 Calm 30.27 1025 10 16 0.00 0.00
10:54 am 10:54 Sunny 20 -6.7 12 -11.1 71 71 Calm 30.21 1023 10 16 0.00 0.00
11:54 am 11:54 Cloudy 24 -4.4 13 -10.6 62 62 Calm 30.20 1023 10 16 0.00 0.00
12:54 pm 12:54 Cloudy 25 -3.9 13 -10.6 60 60 VRB 3 6 30.12 1020 10 16 0.00 0.00
1:32 pm 13:32 Cloudy 27 -2.8 14 -10 58 58 SE 6 9 30.12 1020 10 16 0.00 0.00
1:45 pm 13:45 Cloudy 28 -2.2 14 -10 56 56 SE 6 9 30.11 1020 10 16 0.00 0.00
1:54 pm 13:54 Cloudy 28 -2.2 14 -10 56 56 SSE 7 11 30.05 1018 10 16 0.00 0.00
2:20 pm 14:20 Cloudy 29 -1.7 14 -10 54 54 SSE 7 11 30.08 1019 10 16 0.00 0.00
2:54 pm 14:54 Cloudy 31 -0.6 15 -9.4 52 52 S 10 17 30.01 1016 10 16 0.00 0.00
3:54 pm 15:54 Cloudy 34 1.1 18 -7.8 52 52 S 13 20 29.96 1015 10 16 0.00 0.00
4:54 pm 16:54 Mostly Sunny 35 1.7 20 -6.7 54 54 S 10 17 29.92 1013 10 16 0.00 0.00
5:54 pm 17:54 Partly Cloudy 32 0 20 -6.7 61 61 S 6 9 29.90 1013 10 16 0.00 0.00
6:54 pm 18:54 Clear 31 -0.6 20 -6.7 64 64 SSE 5 7 29.87 1011 10 16 0.00 0.00
7:54 pm 19:54 Cloudy 33 0.6 23 -5 66 66 S 3 6 29.85 1011 10 16 0.00 0.00
8:54 pm 20:54 Cloudy 34 1.1 25 -3.9 70 70 S 3 6 29.82 1010 10 16 0.00 0.00
9:54 pm 21:54 Mostly Clear 32 0 24 -4.4 73 73 Calm 29.80 1009 10 16 0.00 0.00
10:54 pm 22:54 Cloudy 33 0.6 26 -3.3 75 75 Calm 29.78 1009 10 16 0.00 0.00
11:54 pm 23:54 Mostly Clear 36 2.2 27 -2.8 70 70 SSE 5 7 29.75 1008 10 16 0.00 0.00

Powered by AerisWeather